Regional Weather Roundup
Issued by NWS Green Bay, WI

Home | Current Version | Previous Version | Graphics & Text | Print | Product List | Glossary Off
Versions: 1 2 3 4 5 6 7 8 9 10 11 12 13 14 15 16 17 18 19 20 21 22 23 24 25 26 27 28 29 30 31 32 33 34 35 36 37 38 39 40 41 42 43 44 45 46 47 48 49 50

000
ASUS43 KGRB 210100
RWRGRB

NORTH-CENTRAL AND NORTHEAST WISCONSIN REGIONAL WEATHER ROUNDUP
NATIONAL WEATHER SERVICE GREEN BAY WI
800 PM CDT SUN AUG 20 2017

WIZ005-009-010>012-018-019-210200-
NORTH CENTRAL WISCONSIN

CITY           SKY/WX    TMP DP  RH WIND       PRES   REMARKS
IRONWOOD       NOT AVBL
MANITOWISH WTR NOT AVBL
ARBOR VITAE    NOT AVBL
EAGLE RIVER    NOT AVBL
LAND O LAKES   NOT AVBL
RHINELANDER    PTCLDY    73  69  87 SW6       29.98R
PHILLIPS       NOT AVBL
ANTIGO         NOT AVBL
TOMAHAWK       NOT AVBL
MERRILL        NOT AVBL
$$

WIZ013-073-210200-
NORTHEAST WISCONSIN

CITY           SKY/WX    TMP DP  RH WIND       PRES   REMARKS
IRON MOUNTAIN  CLEAR     75  65  70 S7        29.93R
MARINETTE      CLEAR     74  69  85 SW9       29.94S
$$

WIZ017-030-035>037-045-210200-
CENTRAL WISCONSIN

CITY           SKY/WX    TMP DP  RH WIND       PRES   REMARKS
MEDFORD        NOT AVBL
WAUSAU         PTCLDY    75  66  73 W6        29.97R
MOSINEE        PTCLDY    73  66  78 SW6       30.00R
MARSHFIELD     CLEAR     73  65  75 SW6       29.99R
WISC RAPIDS    CLEAR     74  67  78 S8        29.99S
STEVENS POINT  NOT AVBL
WAUPACA        NOT AVBL
SHAWANO        NOT AVBL
CLINTONVILLE   NOT AVBL
WAUTOMA        CLEAR     74  69  85 S5        30.00R
$$

WIZ038-039-048-051-210200-
FOX VALLEY

CITY           SKY/WX    TMP DP  RH WIND       PRES   REMARKS
NWS GREEN BAY  PTCLDY    74  69  85 SW3       29.97S
APPLETON       PTCLDY    73  64  73 S7        29.98R
OSHKOSH        CLEAR     74  67  78 S8        30.00R
FOND DU LAC    CLEAR     74  66  76 S7        30.01R
$$

WIZ022-050-052-210200-
EAST CENTRAL WISCONSIN

CITY           SKY/WX    TMP DP  RH WIND       PRES   REMARKS
EPHRAIM        NOT AVBL
WASHINGTON ISL NOT AVBL
STURGEON BAY   CLEAR     72  68  87 S8        29.97R
MANITOWOC      NOT AVBL
SHEBOYGAN      PTCLDY    72  70  93 S5        30.00S
$$

LMZ563-521-522-541>543-210200-
LAKESHORE

STATION/POSITION TIME  TEMP    WIND        PRES    VSBY  WAVE
                       AIR SEA DIR/SP/G                  HT/PER
                 (UTC) (F)     (DEG/KT/KT) (MB)    (MI)  (FT/S)
SHEBOYGAN LKSHOR 0000   74     190/  9/  9 1015.3R
KEWAUNEE LKSHORE 0030   71     190/  7/ 10 1014.4R
NORTHPORT PIER   0040   71     160/  6/ 10 1013.5S
N MID LAKE BUOY  2350   70 68  190/ 19/ 23 1013.7F         4/ 5
S GREEN BAY BUOY 0030   75 72  210/ 12/ 14 1014.2R
SISTER BAY LKSHO 0003   76     170/ 12/ 15   N/A
MENOMINEE LKSHOR 0030   77     200/ 10/ 13 1013.6R
$$




USA.gov is the U.S. government's official web portal to all federal, state and local government web resources and services.